Location: Dal�� Lhota
(48.7500°N, 14.0167°E)
Time: 02:07:32
(UTC+00:00)

Vanguard 3 - Pass Details

Date: 01 August 2021
Orbit: 510 x 3260 km, 33.3° (Epoch: 16 September)

Event Time Altitude Azimuth Distance (km) Brightness Sun altitude
Rises 13:45:43 0° 171° (S) 5,115 11.4 46.0°
Reaches altitude 10° 13:52:55 10° 141° (SE) 4,853 11.1 45.0°
Maximum altitude 13:56:30 11° 126° (SE) 5,052 11.1 44.4°
Drops below altitude 10° 14:00:26 10° 111° (ESE) 5,465 11.2 43.9°
Sets 14:10:34 0° 86° (E) 7,033 11.5 42.4°
